Wind_Gust
17 16 13 8 7 6 6 15 10 14 14 6 5 5 4 2 3 8 11 10 5 5 5 4 8 10 12 12 14 8 5 11 11 19 13 6 8 11 15 19 18 18 20 18 14 15 16 18 20 20 19 20 19 19 18 19 18 17 17 16 16 16 17 17 17 16 16 16 16 16 16 16 16 15 14 14 14 14 13 14 14 15 15 16 16 16 16 16 17 17 18 18 18 17 16 16 16
17 15 11 7 6 9 11 6 14 9 12 10 6 3 6 3 6 5 10 6 9 8 3 7 9 8 11 10 11 6 7 10 4 7 8 8 13 11 15 19 20 22 19 17 13 14 13 17 20 20 20 20 20 19 19 18 18 17 17 16 16 16 16 16 16 16 16 16 16 16 16 16 16 15 14 13 12 11 11 13 14 15 14 14 15 16 16 15 15 16 17 17 17 16 16 15 13
17 16 16 12 8 12 4 12 9 4 7 6 10 9 5 7 3 5 9 8 6 5 4 7 7 7 6 6 4 8 5 5 11 8 13 9 20 8 13 16 17 19 18 15 15 14 14 16 19 19 20 20 20 20 18 18 18 17 17 16 16 16 16 17 16 16 16 16 16 16 16 15 15 14 13 13 12 11 10 11 15 15 14 15 15 15 15 16 16 15 15 15 15 15 14 14 12
8 8 8 9 14 11 8 12 8 8 7 9 13 9 4 6 5 4 8 10 3 8 4 5 6 4 3 5 5 5 5 3 6 12 20 18 7 15 15 15 15 17 15 15 15 14 13 19 19 20 20 19 20 20 19 18 18 17 16 16 17 16 16 16 16 16 16 16 15 15 15 15 14 14 13 13 11 11 12 13 14 14 14 14 14 13 13 14 14 14 14 14 14 14 13 12 10
8 6 8 11 9 9 8 3 7 5 7 9 11 8 5 6 7 5 6 7 4 7 3 6 7 7 4 6 3 7 4 7 9 5 20 7 15 14 16 15 15 16 16 16 16 15 14 22 21 19 19 20 19 20 19 19 18 18 16 16 16 15 15 15 16 16 16 15 15 15 14 14 14 13 13 13 13 13 12 12 12 12 12 12 12 12 12 11 12 12 12 13 12 12 12 11 10
5 7 7 8 6 7 14 3 6 6 12 8 8 16 11 12 6 6 8 9 8 5 4 2 7 7 6 8 7 7 4 6 8 7 15 10 19 16 17 15 15 16 16 17 16 15 15 22 19 18 18 20 20 20 19 19 19 18 17 17 16 16 15 15 15 15 15 14 14 13 13 13 13 12 12 12 12 12 11 11 11 11 12 13 12 12 12 12 12 11 11 11 12 12 11 10 9
10 10 15 12 8 12 7 4 5 7 15 11 11 14 16 18 11 10 7 9 5 6 4 7 8 6 10 7 9 14 10 11 12 11 8 19 20 17 16 15 15 16 17 17 15 14 16 19 17 18 19 20 22 20 19 19 19 18 17 17 16 15 15 14 15 15 14 14 13 12 12 11 11 11 10 11 11 11 11 11 11 11 12 12 12 12 12 12 12 12 12 11 11 10 10 8 8
3 4 8 8 6 8 2 3 6 8 10 12 8 11 17 17 11 10 10 5 10 13 8 7 8 9 4 5 10 11 15 10 18 20 22 20 18 16 14 15 17 17 19 16 13 14 20 18 18 18 20 20 21 20 19 19 19 18 17 17 16 15 15 14 14 14 13 13 12 11 11 10 10 10 9 8 8 9 10 11 11 11 10 11 11 12 12 12 12 12 12 11 10 10 9 8 8
9 12 4 10 4 7 4 4 8 6 13 13 17 12 14 12 7 9 16 8 4 7 11 13 7 7 7 9 10 6 14 17 20 22 21 20 18 15 15 14 20 20 17 15 13 13 14 17 18 18 19 20 20 20 19 19 18 18 17 17 16 14 14 13 14 13 13 13 12 11 11 10 10 10 9 9 9 8 8 9 8 10 10 11 11 11 11 11 11 11 11 10 10 9 9 9 9
5 6 6 8 10 4 3 9 3 9 9 9 9 19 18 17 14 7 9 17 8 8 7 9 6 8 6 12 6 7 10 18 22 20 17 17 16 14 13 12 17 23 18 14 13 14 14 20 18 16 17 19 19 19 18 17 17 17 17 17 15 14 13 13 12 12 12 12 11 11 11 11 10 10 9 9 9 8 8 8 8 9 9 10 10 11 11 11 11 11 10 10 9 9 9 9 9
7 12 6 7 4 7 7 10 8 9 7 9 15 14 16 13 9 13 6 5 4 6 4 6 10 9 8 8 10 5 12 19 25 22 16 15 16 16 14 12 14 17 21 15 15 14 15 16 22 18 16 19 16 16 17 17 18 17 16 15 14 13 13 12 12 12 12 11 11 11 11 11 10 10 10 10 9 8 7 8 7 8 8 9 9 10 10 11 11 11 11 10 10 9 9 9 10
6 5 4 7 10 13 12 10 6 12 9 8 12 13 7 6 10 13 11 9 3 6 7 8 13 12 10 7 8 10 10 12 21 20 16 17 17 15 15 14 12 10 16 18 15 14 15 16 16 21 20 18 17 18 17 17 16 16 15 14 13 13 12 12 12 11 11 11 11 11 10 10 10 10 10 9 8 8 7 7 7 7 8 9 9 9 10 10 11 11 11 11 11 11 10 10 10
8 5 7 10 12 5 5 3 8 6 7 10 11 15 4 11 14 14 4 4 3 8 8 7 13 8 7 7 12 12 14 11 16 18 18 17 17 16 13 14 12 13 13 15 16 16 14 13 15 16 17 21 18 18 17 17 16 16 15 14 13 13 12 12 12 11 10 10 10 10 10 10 10 10 10 9 8 8 7 7 7 8 8 9 9 9 9 10 10 11 11 11 11 11 10 10 11
12 15 15 14 4 8 11 8 3 4 9 12 7 9 11 12 9 9 5 7 5 7 6 14 15 14 13 17 15 14 16 15 18 17 18 16 16 16 15 14 13 13 12 13 16 16 14 13 14 14 16 14 13 16 18 18 16 16 14 13 13 12 11 11 11 10 10 9 10 10 10 10 9 9 9 9 9 8 7 7 7 7 8 8 8 8 8 9 9 10 10 10 10 10 10 10 10
9 7 10 9 8 6 7 14 10 9 15 8 10 5 10 11 7 9 7 8 10 4 6 8 13 10 16 20 16 20 21 20 19 17 19 17 16 15 15 14 14 12 12 11 12 14 15 15 13 12 12 11 12 11 11 16 17 15 14 13 12 11 11 11 11 10 10 9 9 9 9 9 8 9 8 8 8 8 8 7 7 7 7 7 7 7 7 8 8 9 9 10 10 10 11 11 10
10 12 11 13 11 11 14 8 3 6 21 8 9 5 9 20 4 9 8 4 7 3 8 10 3 8 8 16 23 25 25 22 19 21 23 19 16 14 14 13 14 13 11 11 12 12 15 15 12 13 12 13 12 10 11 11 15 16 14 13 13 12 11 10 10 9 10 9 9 9 10 9 9 8 8 6 7 8 7 5 7 6 7 7 7 7 8 8 8 9 9 9 10 10 11 12 13
5 10 9 10 10 8 11 11 12 19 12 10 11 7 12 22 5 5 4 6 13 7 6 7 4 6 11 10 25 29 26 25 22 23 23 19 18 16 13 12 12 11 10 10 11 14 14 16 16 14 13 14 13 12 11 10 13 15 12 13 13 12 11 10 10 9 9 8 7 7 9 8 7 6 6 5 6 3 4 6 6 6 6 7 7 6 7 7 8 9 9 9 10 10 11 12 13
7 15 15 10 11 13 13 16 19 8 12 10 8 7 4 13 8 5 5 13 10 9 13 6 15 12 14 20 27 28 28 28 26 25 23 20 17 17 16 15 16 18 13 12 12 13 14 13 15 13 14 14 13 12 11 10 10 12 8 7 7 8 9 9 6 4 8 4 7 7 6 5 6 6 5 6 2 3 4 5 6 6 5 6 5 6 6 7 8 8 9 9 9 9 10 8 9
14 13 16 24 14 16 15 15 15 10 11 13 10 5 3 9 4 8 6 3 5 13 10 12 20 20 22 24 26 26 25 24 22 22 23 19 17 18 17 15 16 14 16 14 13 13 12 13 12 14 13 14 14 12 11 8 9 8 8 8 7 8 8 7 4 5 6 6 6 6 6 5 5 5 3 6 5 6 4 6 6 6 6 6 6 6 7 7 7 8 9 10 10 9 8 7 8
11 15 20 16 12 10 12 7 11 12 9 12 11 9 3 6 5 3 5 5 5 14 17 15 21 21 23 23 24 23 22 20 18 19 22 22 20 16 16 17 13 16 15 16 16 13 14 14 16 14 15 15 15 12 12 10 9 8 8 7 7 6 5 6 5 6 5 5 6 5 5 5 6 5 9 11 9 6 6 7 8 8 8 8 8 6 7 6 6 7 7 8 8 6 6 6 7
12 13 18 17 12 13 12 10 10 12 8 11 9 7 14 9 6 4 8 5 6 11 14 21 25 26 27 26 25 24 23 21 19 17 18 18 16 18 23 20 19 17 13 12 13 15 16 15 15 16 16 15 15 14 13 11 10 8 7 7 7 6 6 6 5 4 4 4 5 4 5 5 6 6 6 6 6 6 5 5 5 5 5 6 7 6 6 6 6 6 6 6 6 5 6 7 8
11 21 10 11 7 10 8 15 14 11 9 5 6 7 20 7 8 4 10 10 16 15 17 24 29 32 33 30 26 24 23 23 19 19 18 23 27 28 20 17 12 12 14 17 18 16 15 15 14 13 16 16 14 13 13 14 12 9 10 8 7 6 6 5 3 3 4 5 3 4 4 6 7 6 7 6 6 5 5 5 5 5 6 6 5 5 5 6 6 6 7 7 7 6 6 6 6
21 12 8 10 10 13 7 8 11 12 17 9 10 11 7 10 13 6 10 8 8 9 20 26 26 28 28 29 29 24 23 22 20 21 26 31 28 28 34 36 32 27 24 21 17 15 15 13 12 12 14 15 14 12 13 11 10 9 10 8 7 6 4 4 4 3 3 3 4 3 3 5 6 5 6 6 5 5 6 6 5 5 5 5 5 5 6 5 5 6 6 7 6 7 8 8 8
11 22 3 9 7 13 6 10 10 10 10 15 15 7 9 7 13 6 8 9 8 13 21 23 24 24 26 29 26 29 26 25 26 29 33 37 39 40 37 39 33 27 24 22 19 16 17 16 14 14 15 14 12 14 13 10 8 9 9 9 7 7 6 4 4 3 1 1 2 3 6 5 5 5 5 6 5 6 7 7 6 6 5 5 6 5 5 5 7 6 6 7 8 7 8 7 7
19 21 6 5 7 10 10 11 9 7 9 10 4 8 11 7 8 6 8 8 7 13 20 23 25 25 23 25 26 25 23 22 28 31 25 24 28 38 36 31 29 27 26 21 18 18 16 15 15 14 13 13 12 12 12 10 9 9 7 7 7 7 6 5 4 4 5 4 5 4 6 6 6 6 6 6 6 7 6 6 7 6 6 6 5 7 7 6 7 7 8 7 7 8 7 9 9
17 12 7 5 9 5 11 11 16 14 7 4 6 10 13 6 10 10 12 7 8 14 20 24 25 25 25 25 27 27 25 27 29 26 27 21 27 25 26 29 29 26 22 18 17 17 15 14 15 14 12 14 13 12 11 10 10 9 8 6 5 5 5 5 4 5 5 5 6 6 6 6 5 6 7 6 8 7 6 6 6 5 6 6 6 9 6 7 7 7 8 8 9 8 8 10 8
5 12 12 11 10 7 6 9 12 10 11 5 11 14 19 5 8 9 6 11 12 15 19 19 25 25 23 23 23 23 27 28 31 29 17 17 14 26 23 15 15 14 12 16 16 15 13 12 12 12 11 12 12 11 10 10 10 9 7 6 6 6 6 7 6 7 7 7 7 7 6 6 6 7 7 7 7 7 6 7 6 5 7 7 6 7 7 6 6 7 7 7 8 8 9 8 8
11 7 7 14 13 12 9 6 14 3 12 11 11 17 16 7 5 12 17 13 11 20 19 18 18 22 26 22 23 20 22 23 24 19 25 20 25 21 19 22 18 13 13 14 13 10 11 11 14 13 11 11 12 10 9 9 8 8 7 8 7 8 8 8 8 7 9 7 7 7 6 6 7 7 8 7 7 7 8 7 6 7 6 6 6 6 6 6 7 7 8 7 7 6 8 9 8
4 10 10 5 6 24 17 20 17 8 17 8 14 12 16 7 8 10 19 15 13 16 19 18 16 16 17 20 19 19 22 19 18 18 24 28 25 23 24 18 18 14 10 9 10 10 14 14 12 9 8 8 10 10 10 8 8 9 10 8 9 9 8 8 8 7 8 7 5 6 7 7 8 8 7 6 7 7 7 8 7 7 6 5 5 5 6 5 7 8 9 7 8 8 9 9 8
2 4 10 6 8 14 19 11 13 9 16 13 12 20 14 11 7 11 17 19 15 16 18 21 15 14 15 17 18 17 14 14 18 20 19 18 19 19 20 16 14 14 12 10 9 12 9 6 6 7 8 9 9 8 9 9 8 9 8 8 8 9 8 8 9 8 8 8 7 7 7 8 8 8 6 7 6 7 8 8 7 8 7 5 6 7 8 8 9 11 9 8 9 9 9 8 10
13 7 9 16 11 22 9 21 12 16 14 12 14 19 16 6 6 12 15 18 24 20 19 19 15 14 15 16 15 17 16 14 16 13 16 15 15 15 15 14 14 11 11 11 11 8 7 7 8 8 8 9 9 10 10 10 8 10 9 8 8 8 9 9 8 8 8 7 8 7 7 7 9 9 7 7 6 6 9 9 8 7 7 7 9 7 9 9 10 11 9 8 8 11 9 10 10
8 16 17 13 21 8 9 7 15 26 11 15 13 17 17 7 11 14 13 15 18 19 20 21 18 17 16 15 15 16 18 10 8 9 14 14 14 14 12 13 12 12 13 13 11 10 9 6 8 8 8 10 10 11 10 11 10 9 9 9 9 8 10 10 9 9 8 7 8 7 6 7 8 8 8 7 8 8 8 9 8 8 7 9 9 9 10 10 9 10 10 8 11 12 11 12 9
9 20 12 21 16 11 10 8 13 16 15 4 21 15 5 5 10 17 13 18 17 18 16 20 17 18 18 16 15 13 12 12 8 10 11 9 7 9 13 15 17 14 11 12 13 11 10 9 10 10 11 13 12 12 11 10 10 10 10 11 9 10 11 11 9 8 9 9 8 8 7 8 8 8 8 7 8 8 9 9 8 8 7 10 9 9 10 8 7 10 10 11 11 11 12 11 11
20 16 28 12 20 11 22 11 3 13 14 11 11 16 10 4 19 17 15 20 17 17 18 17 17 17 16 15 13 13 14 14 17 13 12 9 7 5 6 8 8 7 7 10 11 13 12 10 9 9 9 10 12 14 12 11 11 12 11 11 13 13 12 10 8 9 9 8 9 9 8 9 10 9 9 8 8 8 8 8 8 8 8 9 10 10 9 7 8 8 11 11 13 13 12 12 11
34 16 15 9 5 11 12 17 8 14 14 15 8 10 5 7 17 15 16 15 16 18 20 21 17 16 15 14 15 13 14 16 16 9 8 8 7 6 8 10 9 9 10 12 12 11 11 12 11 10 11 12 14 16 15 14 14 13 12 12 13 13 11 11 9 11 10 10 10 9 10 10 10 10 9 8 9 9 9 9 9 8 8 9 10 10 9 9 8 9 11 10 11 12 10 9 8
12 17 12 9 14 15 24 22 8 18 12 13 14 19 12 14 16 14 11 12 15 14 11 16 16 16 15 15 14 15 13 15 8 8 8 9 9 9 10 10 10 10 11 12 12 12 12 12 11 11 12 14 15 14 14 13 11 12 15 13 14 12 12 12 11 11 10 11 10 10 11 10 10 10 9 9 9 9 9 9 10 10 9 9 10 11 9 9 7 8 10 8 9 11 14 12 11
13 11 10 11 9 5 8 7 10 11 13 16 13 10 15 19 21 19 16 12 11 13 18 18 19 20 20 17 17 14 14 14 8 9 11 11 12 11 11 13 14 13 11 13 13 12 12 13 13 13 12 15 15 16 14 15 15 13 12 12 14 11 12 11 12 10 12 11 10 11 10 11 10 9 10 9 9 10 10 10 11 10 8 9 10 9 7 7 7 6 6 9 10 14 16 15 14
6 12 11 12 11 13 10 13 6 11 16 6 5 14 16 18 18 17 13 14 16 19 21 20 22 20 17 19 19 17 13 7 10 12 13 12 14 14 13 13 15 16 12 13 14 13 12 13 14 14 12 12 12 13 15 13 12 13 15 13 14 11 11 13 12 10 10 11 11 11 10 11 11 10 10 9 8 9 11 11 9 8 7 9 10 8 8 9 10 12 6 10 10 15 15 15 17
5 8 7 12 14 7 8 7 7 5 7 8 9 15 13 11 12 10 13 17 17 15 13 19 20 21 18 20 19 15 14 14 15 14 13 13 14 15 13 13 13 14 15 13 13 13 12 13 13 12 11 12 10 12 15 16 13 11 15 14 14 15 10 9 12 11 11 12 12 11 11 11 9 10 9 9 11 11 10 11 10 8 7 7 9 11 9 13 12 12 10 9 10 11 14 16 17
11 5 6 11 8 16 18 5 7 11 14 14 8 16 11 7 7 6 6 12 7 8 9 10 13 19 22 25 20 21 18 19 20 16 17 16 13 14 13 13 13 14 13 13 12 15 14 14 12 13 12 11 13 14 15 12 14 14 12 13 11 12 14 12 12 11 12 13 12 11 11 10 9 9 8 9 11 10 10 11 9 10 10 8 9 11 13 14 14 13 12 11 8 14 14 16 15
13 9 7 7 5 6 10 10 6 5 12 15 18 13 8 9 12 11 8 6 10 10 10 10 11 11 8 8 12 15 21 20 20 19 15 17 16 15 14 13 15 15 15 14 13 14 12 12 13 14 15 16 16 17 16 15 18 16 16 14 15 16 12 11 12 12 10 11 11 12 10 9 10 10 9 9 10 10 9 10 11 10 11 9 11 14 14 13 12 11 12 13 12 12 12 13 17
14 8 12 8 4 4 3 5 12 9 7 10 14 15 15 11 16 17 11 11 14 14 14 15 15 14 13 16 15 14 11 11 18 14 14 16 16 16 14 15 15 14 15 13 13 12 11 12 13 13 16 17 18 18 16 16 17 20 18 18 15 12 12 8 9 10 9 9 9 7 10 10 9 9 9 9 8 9 10 9 9 12 12 12 13 13 12 14 15 15 13 11 12 10 15 13 16
14 19 15 10 6 2 4 6 7 11 19 15 4 17 22 9 22 20 15 15 14 14 19 18 17 16 16 16 17 18 18 16 14 10 11 19 19 15 14 16 15 15 13 12 11 11 11 12 14 14 17 17 18 16 16 16 15 14 15 14 13 14 15 8 8 9 11 9 9 9 9 9 9 9 9 8 9 10 11 11 12 12 12 12 12 14 16 14 14 14 13 16 12 10 11 18 13
26 7 19 13 8 7 5 6 7 7 5 6 4 11 17 13 20 16 15 17 17 16 19 19 20 18 19 18 17 17 18 17 21 18 14 19 20 22 18 16 14 15 13 13 13 12 12 13 13 12 15 17 17 16 15 15 17 13 12 11 11 11 11 13 10 11 10 10 11 9 9 9 9 9 9 10 10 10 11 12 12 12 13 12 14 14 14 12 15 15 15 14 15 16 15 17 15
14 6 17 14 14 10 7 6 5 5 10 8 11 4 16 21 13 14 18 22 21 22 23 25 23 21 20 20 19 18 18 19 20 21 17 17 21 18 16 16 13 14 14 15 14 13 12 12 13 14 15 15 16 18 15 13 14 14 13 14 13 10 13 13 11 11 11 9 13 9 10 9 9 10 10 9 9 10 11 11 11 12 13 13 14 15 15 15 15 15 16 18 17 17 17 14 18
6 12 12 11 9 8 10 11 7 4 6 13 17 14 25 15 7 18 19 22 24 28 30 29 24 24 22 23 20 18 16 16 16 17 16 12 18 17 14 14 14 14 13 14 13 13 12 11 13 14 14 15 15 17 15 13 12 14 14 13 17 14 13 12 11 12 10 9 12 9 8 10 9 10 10 9 9 9 10 10 11 12 12 13 15 15 15 16 16 17 16 16 16 18 16 18 19
6 13 12 6 6 4 4 6 8 6 13 23 13 17 17 21 14 25 31 33 34 30 22 17 19 20 22 22 20 20 19 17 17 17 14 11 15 17 17 18 15 13 14 15 14 14 13 13 13 13 12 12 13 15 16 15 13 12 15 15 16 17 13 14 14 11 10 9 11 9 9 9 9 10 9 9 9 8 10 11 11 11 12 13 14 15 15 15 15 16 17 17 17 17 17 18 19
15 15 12 13 6 7 6 4 5 15 24 14 10 21 17 22 9 16 26 25 32 28 28 30 29 29 27 23 23 21 19 17 16 18 16 16 17 19 19 17 16 14 16 16 14 15 13 12 14 13 11 13 13 14 14 14 13 12 13 15 16 15 15 15 15 14 10 11 10 10 8 10 9 9 8 10 9 9 11 11 10 11 13 13 14 13 14 15 15 15 16 16 17 16 16 18 17
14 12 14 23 15 17 17 9 14 22 33 9 13 15 9 25 15 22 33 30 22 27 31 32 32 30 26 23 24 21 19 17 19 19 18 20 19 21 21 17 18 15 17 15 15 14 13 13 14 15 13 11 14 14 15 13 12 12 14 14 14 15 14 14 14 13 10 12 11 10 10 11 8 10 8 10 7 8 10 11 11 12 12 12 13 15 14 15 16 17 17 17 17 17 17 17 20
20 23 23 27 22 22 21 18 16 16 15 8 9 15 22 9 18 15 25 32 33 31 29 25 27 30 29 26 23 21 20 19 19 19 19 20 22 21 25 26 21 17 16 17 15 15 13 13 13 15 14 12 12 13 14 13 12 13 13 15 15 15 15 14 13 14 10 10 10 10 10 9 10 9 8 8 5 8 10 9 11 12 11 13 14 15 15 15 15 17 16 18 16 16 16 17 19
24 10 24 19 19 32 27 24 33 23 16 8 3 16 21 10 14 7 24 26 24 15 5 7 12 14 11 12 15 17 18 17 18 18 21 22 23 21 21 23 22 18 17 17 16 15 15 15 14 15 14 11 12 12 12 14 14 13 13 14 14 13 15 13 12 11 12 12 9 11 9 8 10 7 9 7 7 10 10 10 11 12 12 13 14 15 16 16 15 16 17 17 17 15 16 18 17
13 13 13 14 29 14 17 17 13 12 12 8 10 21 11 18 6 8 7 10 12 12 12 15 15 16 18 19 22 23 21 20 18 18 22 20 22 22 20 18 20 20 17 17 17 16 16 15 14 14 15 12 12 13 12 14 13 14 14 15 14 15 14 13 12 10 10 11 11 12 11 9 9 9 8 9 7 9 11 12 13 13 12 14 14 15 15 15 14 17 17 17 18 12 17 17 16
20 20 32 27 11 10 9 4 3 5 7 17 9 13 12 16 11 6 6 14 13 14 15 18 18 20 21 22 22 21 21 20 20 19 23 22 21 22 22 19 19 18 17 17 16 15 17 17 16 15 13 11 12 12 13 13 14 15 13 14 14 14 15 15 15 12 12 10 11 12 12 10 9 10 10 8 10 9 10 12 14 13 13 13 14 14 15 14 14 16 17 16 17 13 16 16 14
20 29 20 9 7 11 12 16 8 8 14 20 6 15 6 8 23 9 5 15 12 19 18 19 19 20 24 24 22 22 21 20 19 16 21 22 18 23 22 20 19 19 18 17 16 13 16 17 17 17 14 16 12 14 14 14 15 15 15 14 13 14 15 14 14 14 13 13 12 13 11 12 10 9 10 9 10 10 11 13 14 13 13 13 14 14 15 14 14 16 15 15 13 13 15 14 13
27 26 12 30 21 22 12 12 11 10 13 13 7 5 10 14 13 9 10 19 17 17 16 18 21 24 25 22 21 20 20 21 22 20 22 26 23 19 23 21 18 19 19 18 16 15 14 15 16 18 16 14 15 13 13 12 13 14 14 15 15 14 13 14 13 13 13 14 14 12 12 11 11 9 11 11 11 11 12 11 12 12 13 13 13 14 14 14 13 15 14 15 12 13 15 14 11
7 15 22 13 13 16 17 26 11 13 8 6 10 3 18 18 16 21 24 24 26 24 21 24 28 29 26 24 24 25 24 23 24 23 23 25 24 19 20 22 20 20 19 19 18 15 16 16 17 15 14 13 13 14 14 14 12 14 14 13 11 13 13 14 14 14 14 14 13 14 14 12 11 10 11 10 11 11 11 12 11 13 13 13 13 12 13 13 13 13 13 14 12 13 14 13 11
20 20 21 22 25 8 15 9 15 11 14 11 12 11 18 19 17 19 23 27 27 30 31 29 27 25 24 24 25 24 23 23 24 23 22 23 23 21 19 20 20 17 18 19 19 18 16 15 17 18 20 15 14 13 14 13 14 14 16 14 14 13 13 14 13 12 13 13 13 13 12 12 11 11 11 12 11 11 11 12 12 12 12 12 13 12 11 12 12 13 12 12 11 12 13 11 11
17 21 16 13 16 12 23 26 11 14 11 11 11 16 17 22 10 23 24 25 27 30 31 30 26 25 27 26 23 24 24 22 23 22 21 22 22 22 19 19 19 20 18 18 18 18 16 16 18 17 17 17 18 14 14 15 13 15 15 14 13 11 13 13 14 13 13 13 13 14 13 12 13 9 11 13 12 10 11 12 13 12 12 12 12 12 11 12 13 13 11 10 12 11 11 10 10
Wind_Speed
12 10 5 3 4 5 3 5 1 3 5 2 2 2 0 1 1 4 6 6 1 1 0 2 2 4 3 2 2 4 1 2 3 6 3 1 2 3 6 11 11 10 10 9 7 7 10 14 16 16 16 16 15 15 15 15 14 14 13 12 12 12 13 12 13 13 12 12 13 13 13 13 13 12 12 11 10 10 9 11 11 11 11 12 11 12 12 12 13 12 14 14 13 13 12 12 12
10 10 5 3 2 4 3 1 4 4 5 5 1 0 0 2 3 2 7 4 2 1 0 5 2 4 8 6 7 3 3 5 1 1 1 3 5 4 6 10 11 13 11 8 5 7 8 11 17 16 16 16 16 16 15 15 15 14 13 12 12 13 12 12 12 12 13 12 13 13 13 13 13 12 11 10 9 9 8 9 11 12 10 10 11 12 12 11 12 12 13 13 13 12 12 11 10
9 8 7 6 3 5 1 4 3 2 4 4 4 3 1 1 1 2 3 5 4 3 1 3 1 4 3 4 2 4 1 2 4 2 3 4 7 2 6 8 10 12 12 7 7 7 7 10 15 16 17 16 16 16 15 15 14 14 13 12 12 12 12 12 12 12 12 12 13 13 13 12 12 11 11 10 10 9 8 9 12 12 11 12 12 11 12 11 12 12 11 11 11 11 10 10 9
5 4 4 4 4 5 2 4 4 3 1 3 4 4 1 2 2 2 4 5 2 3 1 1 2 1 1 3 0 3 2 1 1 3 4 5 1 5 7 9 10 9 7 6 7 6 6 12 16 16 16 15 16 16 16 15 14 14 13 13 13 13 12 12 12 11 11 12 12 12 12 12 11 11 11 10 9 9 10 11 11 11 11 11 10 10 10 10 10 11 10 10 10 10 9 9 8
4 3 5 5 2 3 2 0 3 2 1 2 2 4 3 2 1 2 3 4 1 1 2 1 2 3 2 3 0 1 1 1 1 3 2 2 5 5 8 9 9 8 7 7 7 7 8 16 16 15 15 16 16 16 15 15 14 14 13 13 13 12 11 12 11 11 11 11 12 11 11 11 11 11 10 10 11 10 10 10 10 9 9 9 10 10 9 8 9 9 9 9 9 9 8 8 7
3 4 4 3 1 2 4 1 1 1 6 3 2 4 3 2 1 2 5 5 3 3 2 1 1 2 3 3 2 2 0 1 2 3 3 4 9 8 8 8 8 8 8 7 7 6 8 17 16 15 15 16 16 16 16 15 15 14 13 13 13 13 12 12 11 11 11 10 11 11 10 10 10 10 10 10 9 9 8 9 9 9 9 9 9 9 9 9 9 8 8 8 8 8 8 7 7
3 5 6 4 2 4 3 1 3 4 6 6 3 3 3 1 2 1 4 5 2 2 2 1 3 4 4 0 2 2 6 1 4 2 2 8 10 9 8 8 8 9 9 7 6 6 9 14 14 14 15 16 18 16 15 15 15 14 14 14 13 12 11 11 10 10 10 10 10 9 9 9 9 9 8 8 9 9 9 9 9 9 9 9 9 9 9 9 9 9 9 8 8 8 7 6 6
1 0 1 2 1 2 0 1 3 4 3 7 3 4 6 6 8 4 1 1 4 1 1 4 4 5 0 3 1 5 8 5 7 10 10 9 10 9 8 8 9 9 8 7 5 5 12 13 14 14 16 16 17 16 15 15 15 14 14 13 13 12 11 11 10 9 9 9 9 8 8 8 8 8 7 6 6 7 7 8 9 8 8 9 9 9 9 9 9 9 9 9 8 7 6 6 6
4 6 0 4 2 2 2 2 3 3 7 7 8 7 7 1 3 2 3 2 2 2 3 2 0 2 2 4 3 3 4 5 10 11 9 10 10 9 7 9 10 10 8 7 5 4 6 12 13 13 15 16 16 16 16 15 14 14 14 14 13 12 11 10 10 9 8 9 8 8 8 8 8 7 7 6 6 6 6 6 6 7 8 8 8 9 9 9 9 9 8 8 7 7 7 6 7
2 1 1 2 4 1 1 3 1 4 3 5 5 12 9 4 3 2 1 1 2 2 1 3 3 4 3 7 3 3 1 5 10 10 7 8 9 8 8 7 7 11 10 7 5 4 4 13 12 11 12 15 15 15 14 14 14 14 14 14 12 11 10 10 9 9 9 9 9 9 8 8 8 7 7 7 6 6 6 5 6 6 7 7 8 8 8 9 9 8 8 7 7 7 7 6 7
0 5 2 3 1 2 4 5 4 5 4 5 9 8 7 1 1 2 0 0 0 1 1 3 4 5 5 4 3 1 4 5 10 12 8 8 8 9 7 6 7 7 9 8 6 5 4 5 13 12 11 13 13 12 13 14 14 14 13 12 11 10 10 10 9 9 8 9 9 8 8 8 8 8 7 7 7 6 5 5 5 5 6 7 7 7 8 9 9 9 9 8 8 7 7 6 7
1 1 1 2 3 7 6 4 3 7 6 4 5 8 1 3 2 3 3 4 1 0 3 4 4 5 5 3 2 4 4 2 5 9 9 7 7 6 7 7 7 6 5 6 7 5 4 4 6 13 14 13 12 14 13 14 13 13 13 11 10 9 10 9 9 8 8 8 8 8 8 8 8 8 7 7 6 6 5 5 5 5 6 6 7 7 8 8 8 9 9 9 9 8 7 7 7
2 2 4 3 4 3 2 1 4 2 3 4 6 5 2 4 0 1 0 0 1 1 4 5 5 5 3 3 3 5 6 4 5 7 9 7 7 6 6 7 7 7 6 5 5 5 4 3 5 6 9 15 14 13 14 13 13 13 12 11 9 9 9 9 8 7 7 8 8 8 8 8 8 7 8 7 6 6 5 4 5 5 6 6 6 7 7 7 8 8 8 9 9 8 8 8 8
5 6 7 4 1 4 6 4 1 1 4 5 3 5 3 2 3 5 3 1 2 2 3 5 5 7 5 6 4 5 6 7 6 6 7 8 7 6 8 7 8 7 6 6 7 6 4 3 3 5 8 7 7 10 13 13 13 12 11 10 9 8 8 8 7 7 7 7 7 8 7 7 7 7 7 7 6 6 5 5 5 5 6 6 6 6 6 7 7 7 7 7 7 7 8 8 8
3 2 4 3 1 3 3 4 6 4 6 3 4 2 4 2 3 3 3 1 1 2 0 3 2 1 5 9 5 7 9 9 8 7 8 8 8 8 8 7 7 7 7 6 7 6 6 4 4 4 5 5 5 4 5 9 12 11 11 10 9 8 8 7 7 6 6 6 7 7 7 7 6 7 6 6 6 6 6 5 5 5 5 5 5 5 5 6 6 6 7 7 7 7 7 7 7
4 5 4 4 4 6 4 3 0 4 6 3 5 3 3 5 1 2 1 1 2 1 3 0 1 0 3 9 5 13 12 10 8 9 9 10 8 8 8 7 5 5 5 6 6 5 5 5 4 4 5 5 5 4 5 5 9 11 10 10 9 9 8 7 6 6 6 5 6 6 7 6 6 5 6 4 5 6 5 4 5 5 5 5 5 5 5 5 6 6 6 6 6 6 7 7 6
2 4 1 2 5 4 4 4 6 4 4 5 7 3 2 3 2 2 1 3 8 1 3 2 1 1 7 3 13 16 12 11 10 11 10 9 7 6 6 5 5 4 3 5 5 5 5 5 6 5 6 7 6 5 4 4 6 10 8 9 9 9 8 8 7 6 5 4 4 5 6 4 4 3 3 2 4 2 3 4 4 5 5 5 5 4 5 5 6 6 6 7 6 6 6 7 7
2 3 4 5 5 7 6 7 8 3 4 3 4 4 2 7 2 1 2 8 7 6 7 2 8 6 7 10 15 14 13 13 11 12 9 9 6 6 5 5 5 7 6 6 5 6 6 6 8 7 6 7 6 5 4 3 4 6 2 2 2 4 6 7 4 3 4 2 4 3 3 3 3 3 2 2 1 1 2 3 4 4 4 4 4 4 5 5 5 6 6 7 7 6 7 5 5
5 2 4 11 6 6 9 7 10 4 4 6 4 1 2 5 1 0 1 2 3 8 5 6 10 10 12 13 14 14 13 11 10 9 12 11 8 8 6 5 4 7 9 7 7 8 7 7 7 8 7 7 7 6 4 3 4 3 3 2 1 4 4 4 3 3 2 2 2 2 2 2 3 3 1 1 2 1 1 4 4 4 4 4 4 5 5 6 5 6 6 6 6 6 4 4 4
4 7 8 7 6 5 8 4 7 8 6 6 6 2 2 2 0 0 1 3 4 9 9 8 11 12 12 12 13 13 12 10 9 11 12 12 10 7 7 7 7 9 7 6 7 6 7 6 8 7 8 8 7 5 5 4 4 4 4 3 2 2 2 3 3 3 2 2 2 2 2 2 3 2 3 5 5 3 3 4 5 5 4 4 5 3 4 4 4 5 5 5 4 3 4 4 4
2 2 5 6 6 6 7 7 6 8 6 4 4 0 2 2 3 1 5 2 2 3 10 12 15 16 15 14 13 12 12 11 10 10 11 12 10 10 13 12 11 9 7 7 6 7 8 7 7 7 7 7 7 6 6 5 4 5 4 4 3 1 1 2 2 2 1 2 2 2 2 2 2 2 3 3 3 2 2 2 2 2 2 3 4 3 3 3 3 4 3 3 4 4 4 4 4
3 7 3 6 4 5 5 9 10 6 4 2 1 2 6 1 1 1 4 1 7 8 11 9 18 19 19 18 14 12 13 13 11 12 12 16 18 15 10 10 8 8 8 9 9 8 9 9 8 6 7 7 6 5 6 6 5 5 5 4 3 2 2 2 1 1 2 2 2 1 2 3 3 2 3 3 3 2 2 2 2 2 2 2 2 2 3 3 4 3 4 4 4 3 4 4 4
6 3 3 5 6 6 3 4 6 7 4 4 2 4 0 1 0 1 4 3 3 5 5 13 18 19 17 17 17 15 15 14 13 14 15 17 18 19 21 21 19 15 13 12 10 8 9 8 8 6 7 7 7 5 5 4 4 4 5 5 4 3 2 2 2 1 1 1 0 0 2 3 2 2 3 3 3 2 3 2 3 2 2 2 2 2 2 2 2 3 4 4 4 4 4 4 4
3 6 1 6 4 8 4 5 6 5 7 7 2 4 4 3 6 0 4 4 5 1 9 13 15 16 17 17 16 19 17 17 16 17 18 22 21 21 18 15 15 14 14 13 11 9 9 10 9 8 7 6 5 6 5 4 4 4 4 5 4 4 4 2 2 1 0 0 0 1 3 2 2 2 2 3 3 3 3 3 2 3 2 2 2 2 2 3 4 3 3 4 4 4 4 4 4
9 6 4 2 4 5 6 4 4 3 4 2 3 1 4 1 2 3 3 4 3 6 10 13 15 16 15 16 16 15 13 12 12 15 15 11 8 4 4 4 5 11 13 11 9 8 9 8 8 9 7 7 5 5 6 5 4 3 3 3 4 3 4 3 2 1 1 2 3 2 3 3 3 3 3 3 3 4 3 3 3 3 2 3 3 4 4 4 4 4 4 4 4 4 4 5 5
6 7 3 1 2 4 7 5 5 1 1 3 1 2 2 4 6 5 1 1 2 7 10 13 15 16 16 16 16 16 15 16 16 16 17 12 4 4 6 2 1 2 3 6 7 6 5 6 7 7 7 6 6 6 4 4 3 3 3 2 3 2 3 3 2 2 2 3 3 4 4 3 3 3 3 2 4 4 3 3 4 3 3 3 4 5 4 4 4 4 4 5 5 5 5 5 4
2 6 6 3 2 1 1 6 5 1 3 3 3 2 4 1 3 3 0 2 5 9 11 12 14 16 15 15 14 14 15 16 18 18 10 5 5 5 4 1 2 4 4 5 5 4 4 5 5 5 6 7 5 5 3 2 3 2 2 2 3 3 3 4 3 3 3 3 4 4 4 3 3 3 3 3 3 3 4 4 4 3 4 4 3 4 3 3 3 4 3 4 4 4 5 4 4
2 3 2 6 6 4 2 0 4 1 3 7 5 6 5 1 0 5 7 5 7 13 13 12 12 13 14 14 14 12 12 13 14 11 11 9 11 8 6 6 6 4 5 5 5 4 5 4 5 5 6 5 5 3 2 3 2 2 2 2 2 3 4 4 4 3 4 4 4 4 3 3 4 4 3 3 3 4 5 5 4 4 3 3 3 3 3 3 4 4 5 4 4 3 4 5 5
1 5 2 1 3 8 9 9 5 4 3 4 6 1 5 1 4 5 10 9 9 11 13 12 11 10 11 12 11 10 12 11 11 10 10 8 1 2 6 6 8 7 3 5 5 5 6 5 6 5 5 4 4 4 3 3 3 2 3 2 3 3 4 4 4 4 4 4 3 3 3 4 4 4 3 3 4 4 4 5 5 4 3 2 2 3 4 3 4 5 5 4 5 5 5 5 4
1 2 4 1 1 6 12 5 6 5 4 9 6 6 5 6 3 4 11 11 10 11 11 12 9 8 9 11 11 10 8 9 12 12 5 3 2 2 3 4 6 7 6 5 6 6 4 4 3 4 5 5 5 4 4 4 3 3 3 3 3 4 4 5 5 5 4 3 3 4 4 4 4 4 3 3 3 4 5 5 5 4 3 3 3 4 5 4 5 6 5 5 5 5 5 5 4
5 2 3 5 2 8 3 8 8 10 5 8 6 8 3 2 3 8 10 12 17 13 11 12 10 9 9 9 9 10 10 8 10 6 2 2 1 2 3 3 5 6 6 7 7 6 5 4 4 4 4 5 5 5 5 4 3 4 4 4 4 3 4 5 5 5 4 3 3 4 4 4 5 5 4 3 3 4 5 5 5 4 3 4 5 4 5 5 6 6 4 5 5 5 4 3 4
1 5 5 3 10 2 3 4 10 14 1 10 7 8 8 4 7 9 8 9 13 12 13 13 11 10 10 9 9 10 11 6 4 3 2 3 2 2 3 4 4 5 8 8 7 6 6 4 5 5 4 5 5 5 5 5 5 4 4 5 4 4 4 5 5 5 4 3 4 4 4 4 5 5 5 4 5 5 5 5 4 4 4 5 5 5 5 6 5 6 5 5 5 6 5 5 4
1 9 5 9 9 5 1 4 8 11 4 3 13 4 0 2 6 11 9 11 12 10 9 13 12 12 11 10 9 8 7 7 5 4 4 3 2 2 3 4 4 4 5 7 8 7 6 6 6 6 6 6 6 7 7 6 6 5 5 6 6 5 5 5 4 4 4 4 4 5 4 5 5 5 5 5 5 5 5 5 4 5 4 5 5 5 6 4 4 5 6 5 4 4 4 5 5
7 6 10 4 11 5 8 2 1 7 8 4 5 5 4 1 9 11 10 13 12 12 11 10 10 9 10 9 8 8 8 8 10 8 5 3 2 3 4 5 5 4 4 5 6 8 7 6 6 6 6 6 7 7 7 7 6 6 6 6 7 6 5 5 4 4 5 4 5 5 5 5 6 6 6 5 5 5 5 5 5 5 4 5 5 5 5 4 4 5 5 5 4 4 4 4 4
15 7 6 2 1 7 6 5 3 8 7 8 5 6 4 3 9 9 11 11 11 12 11 10 9 9 9 8 7 8 7 9 10 4 3 3 3 3 5 6 6 6 5 6 6 7 7 7 7 6 7 8 8 9 9 8 7 6 6 6 6 5 5 5 5 5 5 5 6 5 6 6 6 6 6 6 5 5 5 5 5 5 4 5 5 5 5 5 5 5 4 3 4 5 4 4 3
8 11 3 4 7 6 10 8 2 13 7 7 10 10 7 7 10 9 7 8 10 9 6 5 8 8 8 9 9 8 8 9 3 3 4 4 4 4 5 5 5 5 6 6 7 7 8 8 7 6 6 7 8 9 8 7 6 6 7 6 7 6 5 6 6 5 5 6 6 6 6 6 6 5 6 5 5 4 5 5 5 5 4 4 6 6 5 5 4 4 4 4 5 5 5 4 5
8 7 5 5 5 1 2 3 4 5 5 8 8 6 9 11 12 12 10 7 7 7 11 9 10 10 10 9 10 9 9 9 3 5 5 6 6 5 5 6 6 6 7 8 8 7 8 8 9 8 6 8 8 8 7 8 8 6 5 6 6 5 6 6 6 6 6 6 6 6 6 6 6 6 6 5 5 5 4 4 5 5 5 5 5 5 4 5 4 3 3 4 5 6 7 6 6
4 8 7 6 4 5 5 6 0 6 5 2 1 6 8 11 12 11 8 9 11 12 13 13 11 10 9 11 11 11 8 2 6 7 8 7 7 8 7 6 8 9 8 9 9 8 8 9 9 8 6 7 7 8 8 6 3 6 7 6 7 5 5 6 6 5 5 5 6 6 6 6 6 6 6 5 5 4 4 4 5 5 5 5 5 4 5 5 5 4 1 5 5 6 5 8 8
3 5 5 7 7 1 3 1 2 1 4 4 2 8 5 7 8 7 7 11 9 9 9 9 9 10 8 8 9 8 8 7 7 8 8 8 9 9 6 7 7 8 8 9 8 9 8 8 8 7 7 7 6 4 5 6 5 4 5 5 6 6 5 5 6 5 5 6 7 6 6 6 6 6 5 5 4 4 4 5 4 4 5 3 4 6 5 6 4 4 3 4 5 4 6 8 10
1 2 2 5 4 7 7 0 2 4 2 6 4 8 3 3 3 2 3 7 2 5 6 6 6 10 11 12 9 8 9 8 11 10 11 9 8 8 8 8 7 7 7 7 8 10 8 9 8 8 7 7 7 5 5 6 8 8 7 7 5 5 7 6 7 6 7 8 7 6 6 6 6 5 5 5 4 5 5 5 4 4 5 4 5 6 6 5 4 4 4 3 4 7 6 8 8
2 3 1 0 2 2 4 4 2 2 5 7 11 6 2 5 6 4 4 3 3 6 6 6 6 6 5 4 6 8 9 8 10 11 10 11 11 9 8 8 8 8 8 7 8 7 7 8 8 9 9 9 9 6 7 8 10 9 8 8 8 9 6 5 6 6 5 5 5 6 6 5 6 5 5 5 5 5 5 5 5 5 5 5 5 6 5 4 4 4 4 5 5 6 7 5 8
3 3 6 5 2 1 2 4 5 3 1 4 8 2 4 6 10 10 4 4 7 7 8 9 8 8 7 8 9 8 7 6 8 9 8 10 9 8 10 10 8 7 7 7 7 7 7 7 8 9 10 8 8 7 8 8 9 11 9 9 7 6 6 4 5 5 4 5 5 4 6 6 5 5 5 5 5 5 5 5 5 5 5 5 5 5 5 5 6 6 6 5 7 6 8 7 7
6 7 8 7 3 0 3 2 2 4 5 6 0 8 5 2 12 12 7 8 8 6 10 10 9 8 9 9 9 9 9 7 7 6 7 10 10 9 9 9 8 8 7 6 6 6 7 8 9 9 10 9 9 8 8 8 8 7 9 8 7 8 8 4 4 5 6 4 4 5 5 5 6 6 5 5 5 5 5 5 5 6 6 6 5 6 7 7 5 5 4 6 6 4 5 8 6
8 3 9 8 4 5 1 2 2 1 1 1 1 2 5 2 8 9 9 10 9 8 10 10 11 11 12 11 10 9 9 9 9 8 9 10 10 11 9 9 8 7 7 7 6 6 9 9 9 8 9 9 7 8 8 7 9 7 7 6 6 6 6 7 6 6 5 5 6 5 5 5 5 5 5 6 5 5 5 6 6 6 7 6 6 6 6 5 5 6 7 7 8 7 8 8 7
3 4 9 7 7 5 2 3 2 1 4 2 5 1 1 5 5 7 11 13 14 14 13 14 15 13 13 13 12 11 10 10 10 8 8 11 11 12 10 9 7 8 8 7 7 7 7 8 9 9 10 10 9 12 9 7 7 7 7 7 7 6 7 7 6 5 5 5 8 5 6 5 5 6 6 6 6 6 5 6 6 7 7 6 6 5 5 6 8 9 9 10 10 9 9 7 9
2 8 7 4 4 3 2 3 2 0 1 6 10 6 6 3 3 10 11 12 14 15 18 18 16 15 14 14 13 11 10 9 9 9 5 8 10 10 9 7 8 8 7 7 7 7 7 7 9 10 10 9 8 10 9 8 8 8 8 8 11 8 7 7 6 6 5 5 7 6 5 5 5 6 6 6 6 6 6 6 6 7 7 6 5 6 7 9 9 10 10 9 9 11 8 9 9
4 8 6 2 3 1 2 3 3 1 3 11 7 8 5 4 5 12 15 12 14 16 12 8 9 12 14 14 13 12 11 10 10 10 5 6 9 11 9 9 9 8 7 8 7 7 7 8 9 9 8 7 8 10 10 10 8 7 8 9 11 11 9 9 8 7 6 6 6 5 5 5 5 6 5 5 6 5 6 5 6 7 6 6 6 7 8 9 8 9 9 11 11 11 9 10 10
10 3 4 7 2 3 2 1 2 3 7 7 5 10 6 7 2 6 11 10 18 17 15 18 17 18 17 14 14 13 12 11 10 11 9 6 11 12 11 10 10 9 9 9 8 7 7 7 8 8 7 9 8 9 9 9 8 7 7 9 10 10 10 8 9 8 6 7 6 6 5 6 5 5 5 6 5 5 6 6 6 7 6 6 7 7 7 8 7 8 8 8 9 9 9 9 9
7 5 8 10 3 2 4 1 3 8 9 2 3 9 2 9 6 9 16 14 13 15 14 16 18 18 15 14 15 13 11 11 11 11 11 7 10 13 12 11 12 10 9 9 9 8 7 8 9 9 9 8 9 9 9 8 8 8 8 9 9 8 8 9 9 7 5 6 6 6 6 6 5 6 5 6 5 5 5 7 7 6 6 6 7 8 8 8 8 8 9 9 9 10 8 9 10
9 9 8 12 6 6 7 6 1 4 4 2 3 6 4 2 5 8 11 17 19 19 18 11 13 14 14 13 12 12 12 12 11 11 12 10 7 12 15 13 10 10 10 9 9 8 8 7 8 9 9 8 8 8 9 9 8 8 8 9 9 9 9 8 7 7 6 6 6 6 6 5 6 5 5 5 4 5 6 6 6 7 7 7 7 8 8 8 8 8 9 10 10 8 9 11 11
11 1 7 6 5 5 6 4 9 7 5 2 2 3 5 5 4 4 15 13 11 6 2 4 8 9 7 8 9 11 12 11 10 11 11 12 9 10 12 14 13 11 11 10 8 9 8 7 8 9 9 7 8 8 8 9 8 8 8 8 8 7 8 7 6 6 7 7 6 7 5 5 6 5 5 4 5 6 6 6 6 7 7 7 7 8 7 8 8 8 8 9 8 7 9 9 10
4 4 6 4 11 6 3 3 1 2 2 3 1 5 5 6 2 2 3 4 4 7 6 7 8 10 12 11 13 13 12 12 11 11 12 13 11 9 11 9 12 12 11 9 10 9 9 7 7 8 9 8 8 8 8 9 8 8 9 10 9 8 7 7 6 6 5 6 6 7 6 5 5 5 5 5 5 6 6 7 7 7 7 7 7 8 8 7 7 8 8 8 9 6 9 11 9
6 7 12 10 5 4 4 2 1 3 2 5 1 5 4 7 6 2 2 3 5 8 10 10 10 12 14 13 12 13 12 12 11 11 11 11 13 9 10 12 9 11 10 10 10 9 10 8 8 8 7 7 8 8 9 8 9 9 9 9 9 9 9 9 8 8 7 6 6 6 6 6 6 6 6 5 6 6 6 7 7 7 7 7 7 7 7 7 7 8 8 9 9 8 8 9 8
5 9 8 4 3 5 3 4 1 1 4 5 2 7 2 3 6 3 3 4 4 8 11 11 9 11 14 13 13 13 13 12 12 10 13 9 11 15 10 9 11 10 10 10 10 9 9 9 10 10 9 10 8 9 9 9 10 9 9 9 8 9 8 8 8 9 7 7 6 6 6 7 6 5 6 5 6 7 6 7 7 7 7 7 7 7 7 7 8 8 8 8 7 8 8 7 6
14 10 4 9 5 9 2 2 2 1 2 2 1 1 3 6 5 2 4 7 8 8 7 7 10 12 14 12 13 13 13 13 13 12 13 15 10 11 14 13 10 10 10 9 9 9 9 7 9 11 11 9 10 8 8 7 8 8 7 9 9 8 8 8 8 8 7 8 8 7 7 7 6 6 6 6 7 7 7 6 7 7 7 7 6 7 7 7 7 8 8 8 7 8 8 8 6
2 9 9 4 4 6 3 6 3 5 2 1 4 1 5 6 6 10 10 13 13 11 9 13 16 17 14 13 13 15 15 14 14 13 12 15 14 10 13 14 13 12 12 10 10 9 10 8 9 10 9 8 8 9 8 9 7 8 8 8 7 8 8 9 8 9 8 8 7 7 8 8 7 6 6 6 7 7 7 7 6 7 7 6 7 6 7 7 7 7 7 7 7 8 9 8 7
6 8 8 2 3 1 4 1 3 2 4 4 3 2 5 7 8 9 14 14 14 17 17 15 15 14 13 13 15 14 14 14 14 13 12 13 15 13 11 12 12 11 11 10 10 11 10 8 8 10 13 10 9 8 9 8 8 8 10 9 9 8 9 8 9 8 8 7 7 6 7 7 7 6 7 7 7 7 7 7 7 7 7 7 7 7 6 6 7 7 7 7 7 8 9 7 6
6 8 6 6 7 5 10 11 2 2 2 2 3 4 7 10 4 12 13 13 12 15 18 17 13 14 13 12 14 15 14 14 14 12 12 12 14 14 12 11 11 11 11 12 10 10 11 9 9 11 10 10 11 9 9 9 8 8 10 9 9 7 8 8 9 8 8 8 7 8 8 7 8 6 7 8 8 6 6 7 7 7 7 7 7 7 6 6 7 7 7 5 7 7 8 7 6
Wind_Direction
319 312 337 62 97 138 110 355 57 325 52 353 342 21 215 28 202 16 348 336 52 271 225 23 119 128 154 203 186 142 315 137 199 134 214 253 82 93 123 123 128 127 128 137 142 138 137 137 140 142 142 141 139 135 133 131 127 122 112 114 115 112 108 108 110 107 108 109 110 112 111 112 109 105 101 101 104 103 97 92 91 83 79 81 85 81 88 100 107 112 116 112 110 108 103 101 97
317 304 21 48 34 23 340 69 101 358 43 33 280 79 263 303 39 60 345 314 224 294 292 97 58 103 84 74 115 141 50 17 290 229 73 104 88 82 129 130 132 132 137 141 132 131 136 140 142 143 143 141 140 136 135 133 125 118 120 118 114 113 113 114 112 112 110 108 109 109 110 109 108 108 109 107 104 96 89 90 91 85 79 82 83 87 94 100 105 109 113 112 108 108 103 96 96
311 334 16 38 24 65 342 37 39 26 50 345 279 211 326 27 64 281 290 295 263 244 179 63 98 41 359 64 13 30 282 237 62 44 90 135 118 183 137 131 131 137 140 138 132 135 137 143 143 145 142 143 141 139 136 126 123 124 122 120 119 115 112 112 109 108 109 110 112 111 111 110 110 109 106 99 97 100 91 85 82 79 71 68 70 79 92 100 102 108 112 111 110 107 104 99 99
288 17 60 39 331 33 45 19 92 113 59 239 319 283 176 160 248 233 281 300 192 194 45 31 85 285 87 29 7 116 70 291 352 144 134 187 228 139 133 128 132 132 134 134 136 138 142 146 145 145 141 146 143 139 131 128 128 127 124 123 120 113 110 110 110 111 111 112 109 111 112 113 111 111 109 108 108 98 84 75 75 77 74 70 68 71 81 93 101 106 105 104 108 107 107 100 93
10 10 55 89 93 3 89 61 126 90 188 220 225 278 256 170 244 254 277 288 218 206 78 131 81 4 95 101 140 110 278 169 171 214 110 8 112 128 125 129 130 131 131 133 136 141 148 149 148 143 146 148 145 135 133 134 130 128 125 119 115 110 111 114 115 115 113 116 116 115 115 115 113 110 108 102 92 87 81 79 79 80 79 76 77 78 78 82 89 97 99 102 100 98 89 84 78
68 37 10 74 54 173 49 47 342 260 222 161 203 254 231 236 37 258 284 312 266 196 146 97 147 193 28 7 14 78 183 313 173 101 139 162 127 132 128 127 127 129 131 134 141 149 149 151 146 144 149 149 141 137 137 136 133 128 124 122 118 118 119 115 113 113 115 114 115 115 115 115 114 112 109 99 91 86 85 83 79 75 69 68 66 67 72 83 86 85 90 91 87 83 81 78 77
16 33 4 25 27 55 161 155 238 224 267 164 210 241 200 230 208 210 300 336 290 236 184 171 106 84 81 162 59 53 315 277 123 162 111 140 125 128 133 131 128 129 134 140 146 148 156 146 145 147 152 147 142 140 138 135 132 129 125 123 119 119 115 112 114 115 115 118 117 117 117 115 114 113 112 112 95 83 80 80 77 71 65 62 59 59 59 64 69 75 76 77 78 78 80 78 73
84 110 324 107 273 40 93 188 239 156 266 170 215 228 258 171 185 158 197 49 293 135 309 137 167 99 239 312 147 319 8 11 93 101 118 126 127 131 136 137 132 130 131 139 145 152 153 143 148 152 151 147 140 139 137 133 131 128 127 125 123 119 120 117 117 118 122 123 125 123 121 120 117 111 110 109 105 103 95 84 80 75 77 70 62 59 59 61 62 64 66 70 76 77 74 68 62
1 85 268 76 92 32 67 196 243 249 285 290 274 215 236 193 127 50 126 248 314 270 43 131 266 127 191 56 63 333 8 61 95 106 122 128 131 136 138 144 138 134 135 141 148 161 140 149 150 152 151 144 139 139 136 134 133 131 130 124 119 119 118 122 126 126 123 125 124 121 119 117 113 110 109 106 103 95 95 87 81 81 74 70 65 60 58 59 63 64 63 61 62 63 58 50 46
36 54 278 146 127 171 16 297 153 241 233 267 283 295 302 347 20 139 187 227 242 330 34 123 106 123 130 87 130 356 58 104 110 103 121 131 131 131 135 135 134 135 143 149 137 129 143 154 155 153 148 141 138 138 135 135 135 130 128 117 120 124 129 129 130 130 130 126 121 119 118 114 110 110 109 104 99 96 90 93 81 76 71 66 62 59 57 56 58 59 56 56 53 49 41 38 35
227 11 140 96 60 140 172 256 264 304 264 309 304 275 275 353 144 94 343 178 56 172 194 170 55 123 105 70 45 2 87 126 127 135 144 134 132 135 129 127 129 137 146 141 128 134 147 162 158 150 141 136 134 132 134 134 127 122 121 120 127 134 137 135 135 134 130 125 121 119 116 112 110 109 106 101 98 95 95 87 84 77 69 63 58 53 51 51 51 49 49 47 42 38 32 28 25
55 78 35 119 173 168 225 196 248 255 292 325 285 290 1 97 55 357 354 12 357 168 190 169 195 144 73 112 116 123 142 138 146 136 135 130 128 125 125 124 128 132 127 130 136 139 148 174 158 147 141 133 134 137 135 126 121 123 123 127 137 144 141 137 135 133 129 125 120 119 115 107 101 98 98 98 96 94 92 95 81 74 65 59 55 50 47 44 44 44 42 38 33 28 25 22 15
133 119 84 118 214 170 180 150 244 253 338 280 249 284 33 353 69 175 79 160 280 130 298 215 127 78 99 110 129 139 134 174 157 138 130 129 128 123 117 124 129 126 133 136 134 144 157 161 155 142 141 137 139 136 131 122 125 125 127 135 146 148 143 138 136 135 131 127 130 124 116 108 103 100 96 95 94 91 83 79 78 67 62 59 52 47 44 41 38 37 36 32 28 26 22 17 11
122 179 136 220 58 147 146 198 322 230 270 252 254 265 324 286 104 139 163 279 252 183 270 155 114 109 88 113 141 163 171 164 147 131 123 118 121 122 123 126 129 128 129 145 151 149 149 144 140 145 140 136 137 133 128 130 130 130 137 143 151 148 141 135 137 137 135 138 131 123 116 111 105 102 96 90 88 86 80 73 66 63 59 57 53 43 37 35 32 31 29 26 24 23 16 12 12
178 152 87 116 142 123 239 145 198 185 252 257 262 293 348 275 97 127 131 227 305 267 7 46 172 89 205 166 185 185 165 158 138 127 119 115 116 122 123 123 124 125 144 151 149 151 145 139 143 125 119 124 119 118 125 135 134 137 143 151 150 143 133 136 141 139 143 145 130 124 118 112 103 95 90 89 87 82 74 64 64 53 52 50 44 38 31 29 26 20 19 18 14 15 11 11 8
142 92 87 153 198 171 253 181 143 170 253 222 265 333 340 297 21 86 228 201 150 5 47 149 49 168 160 178 180 151 149 136 135 125 123 118 115 110 117 112 115 133 142 140 150 148 149 148 137 128 126 126 124 118 130 135 143 148 151 153 151 141 140 140 144 148 149 141 134 119 104 82 71 55 71 63 78 76 67 67 60 56 47 44 36 25 22 19 14 9 7 6 6 4 359 359 1
82 81 153 102 222 160 229 165 152 220 242 264 280 315 256 283 324 81 349 79 108 38 65 353 287 347 152 155 127 129 133 129 130 127 120 112 105 103 97 107 124 144 146 150 157 153 151 154 149 139 144 141 136 135 136 139 153 153 157 155 152 146 145 145 150 153 149 142 118 105 96 100 106 86 53 51 47 73 67 58 58 53 46 41 29 20 17 12 9 5 360 360 359 354 353 355 349
81 175 142 206 178 174 193 184 186 203 179 250 255 222 193 286 350 159 77 47 90 61 54 12 46 51 94 107 115 124 132 136 140 129 115 106 95 109 120 140 154 164 166 164 167 164 161 164 164 158 156 153 147 142 144 142 145 145 116 134 134 144 147 147 143 155 140 32 102 83 81 80 88 107 96 42 51 53 39 54 56 51 38 23 14 3 3 2 360 360 357 359 359 355 355 358 344
167 156 158 221 170 219 168 195 191 129 227 225 230 152 178 250 133 296 131 131 119 67 46 73 76 77 87 105 121 129 136 135 132 121 124 119 119 127 140 156 182 178 183 183 179 179 175 170 171 169 165 156 151 152 144 145 131 114 105 95 129 148 157 131 124 124 72 101 67 72 64 38 54 54 9 251 203 154 79 39 46 37 25 8 2 2 356 351 352 355 354 355 6 359 359 352 342
229 137 207 216 201 212 200 188 202 206 216 237 253 265 165 246 246 327 97 183 101 128 125 103 114 123 121 126 132 135 137 135 134 134 131 120 111 118 152 176 194 200 193 191 185 183 184 179 175 172 166 161 161 153 151 149 148 127 121 112 95 78 73 113 111 122 104 101 95 67 47 39 41 26 330 339 15 45 49 42 31 27 8 348 344 12 348 339 352 355 350 353 2 355 350 347 348
239 156 202 203 205 188 231 207 221 220 195 229 231 120 309 253 210 127 172 95 203 186 177 157 156 144 139 142 143 144 144 147 144 131 123 116 131 174 175 178 191 192 194 193 196 192 187 184 174 172 167 167 162 153 161 163 149 134 127 128 117 109 70 83 112 91 86 66 80 78 85 56 40 52 54 40 47 29 41 36 30 25 5 342 343 1 350 338 351 348 354 350 345 352 357 354 359
125 218 166 187 170 205 234 214 221 215 160 209 293 312 245 174 64 103 125 232 257 196 195 168 147 148 148 151 152 150 156 155 150 139 142 153 174 182 177 179 187 189 192 199 200 191 192 187 178 168 166 166 163 161 166 171 160 153 150 142 136 125 83 72 46 17 18 35 33 43 62 71 63 63 63 59 42 28 20 15 20 15 5 331 341 344 344 345 348 354 1 2 357 355 12 5 0
219 258 217 196 182 181 231 201 228 207 219 196 247 238 304 70 16 267 150 200 260 296 162 157 153 155 151 146 151 159 166 163 160 158 167 182 188 181 187 181 177 184 186 195 192 193 189 187 177 165 166 165 162 166 162 169 158 162 161 153 146 153 105 81 45 7 344 359 327 235 103 90 96 89 78 73 61 35 26 11 12 16 5 340 344 0 1 353 356 18 40 27 12 27 24 20 10
230 222 212 222 191 197 214 207 214 215 203 224 209 355 326 333 311 28 60 290 283 292 155 145 142 143 147 153 165 168 172 168 173 175 185 195 193 194 189 187 183 172 174 184 185 184 186 187 175 170 168 162 153 160 173 183 154 160 167 170 158 156 132 121 106 229 287 84 148 107 96 87 109 95 85 79 73 68 46 15 23 23 11 349 360 53 51 34 46 49 56 34 27 26 22 11 5
207 232 211 246 182 216 237 223 220 207 227 285 351 304 264 19 225 84 8 337 1 107 128 135 140 144 154 158 167 174 174 175 174 194 205 217 192 194 281 309 219 173 175 174 172 174 184 178 164 166 160 163 148 163 187 189 155 150 167 165 144 152 115 129 164 145 82 77 68 80 94 87 61 71 77 76 94 80 68 42 30 30 19 8 44 51 54 46 44 38 40 29 28 24 21 18 12
214 217 171 191 191 209 232 259 246 168 311 134 79 257 282 154 126 58 263 337 60 110 121 136 144 152 162 169 173 176 179 181 185 199 209 215 199 174 214 225 194 258 174 150 151 165 159 160 166 157 153 151 155 176 189 172 140 149 168 144 134 122 127 126 125 86 87 90 68 58 60 75 76 83 84 74 91 89 80 62 62 55 52 32 47 56 30 54 44 38 28 27 23 16 20 14 12
189 185 204 190 239 179 266 211 260 199 206 149 211 254 274 191 78 266 130 217 124 125 134 148 155 162 167 171 180 185 180 184 190 204 206 211 221 193 165 108 125 138 130 145 141 138 148 156 158 146 146 165 162 181 163 142 129 148 145 128 137 129 129 118 98 101 67 73 76 72 77 88 98 83 78 72 78 81 75 78 74 72 61 39 54 63 44 54 57 59 44 36 28 15 15 1 2
138 162 183 228 246 247 252 208 253 82 278 193 172 238 245 329 123 204 173 181 158 142 151 157 165 167 171 177 183 189 193 194 197 204 200 199 207 185 162 153 151 144 150 149 133 123 137 151 151 162 156 162 159 159 147 114 128 138 128 122 123 122 123 104 106 91 87 78 79 77 84 74 74 73 64 60 77 77 75 75 66 65 59 45 51 77 78 61 68 54 48 43 41 25 14 2 353
219 144 197 279 232 253 233 230 229 156 251 152 160 228 272 358 198 218 159 159 152 151 154 162 169 173 177 182 187 193 199 192 205 215 216 214 201 137 169 166 154 147 130 133 131 132 153 160 169 160 130 140 148 140 120 108 116 127 123 109 113 111 102 107 99 92 85 78 82 89 86 80 67 72 61 45 70 73 85 80 67 59 47 53 65 92 89 70 59 51 44 33 48 37 31 11 349
78 74 130 325 305 261 236 216 226 189 227 141 122 250 248 243 244 147 155 151 147 149 161 168 167 175 183 188 195 201 204 202 212 219 209 190 156 156 181 167 151 148 144 134 130 157 161 148 137 132 126 137 143 128 116 113 118 107 86 82 94 92 95 100 99 91 89 80 81 69 69 73 75 74 68 58 56 73 75 71 66 60 58 64 64 54 64 49 55 50 45 52 44 43 33 4 354
172 237 133 190 170 254 213 178 193 209 165 155 154 230 280 290 204 164 166 161 158 163 170 172 168 176 185 193 200 205 215 222 223 224 164 141 130 149 151 153 148 143 137 143 159 166 145 137 134 135 129 133 138 131 119 114 109 89 88 81 80 78 89 95 87 78 82 80 77 66 61 68 65 69 65 74 58 62 71 71 69 66 53 55 58 42 65 56 59 54 42 49 47 37 23 9 2
159 122 225 230 201 284 177 199 161 195 227 160 135 241 218 247 197 171 164 169 166 162 171 175 173 180 187 193 203 208 219 229 256 238 216 171 147 163 150 155 156 158 157 157 151 141 142 138 138 135 131 132 130 119 107 98 88 87 91 95 74 68 89 87 90 95 92 81 73 68 59 64 65 62 60 59 68 60 75 75 67 66 61 66 57 50 55 57 63 62 38 41 50 28 10 5 0
313 192 216 202 210 211 332 233 189 185 103 206 173 208 290 290 205 170 161 167 176 167 169 176 180 184 189 198 203 211 220 236 244 232 217 188 161 137 139 144 166 167 151 155 157 146 142 144 141 139 139 131 114 100 95 93 93 92 91 94 90 92 87 93 94 97 92 80 71 65 56 61 56 62 57 56 69 63 67 72 56 58 60 67 61 56 56 41 61 73 50 36 49 58 27 1 359
239 206 210 198 199 165 215 299 184 186 151 194 235 144 214 253 172 171 167 172 176 179 179 181 180 188 196 197 203 208 214 214 221 216 211 182 149 131 122 139 146 146 152 154 156 147 140 129 126 128 118 114 106 102 101 100 100 104 104 102 105 96 97 106 105 92 77 70 68 64 61 60 57 56 59 55 65 63 59 65 53 45 54 64 62 54 49 37 43 61 72 46 39 54 35 16 352
195 188 204 252 139 184 188 146 238 147 199 168 180 192 212 234 171 170 176 173 177 184 182 181 182 189 197 202 209 211 212 214 220 192 182 161 143 135 133 138 140 138 140 141 138 122 119 115 115 122 120 114 111 110 110 108 108 103 98 102 104 101 93 74 76 76 73 72 64 67 65 61 57 54 54 52 63 58 55 54 56 36 43 62 64 56 43 33 41 39 69 71 49 50 45 13 353
202 184 169 108 131 180 189 209 239 162 179 187 167 187 193 188 169 165 163 175 185 180 161 176 194 198 198 205 209 210 215 226 195 151 148 144 143 142 133 129 128 131 132 128 121 118 116 111 112 111 112 114 111 114 118 119 121 119 115 107 90 86 85 84 65 67 67 65 57 59 60 64 60 60 58 60 66 63 62 51 56 38 39 59 63 54 38 36 32 41 49 53 36 34 32 11 3
117 104 134 181 157 253 278 224 198 172 121 200 187 170 169 176 173 176 175 158 174 167 179 195 198 196 200 204 205 210 215 219 146 146 149 149 146 143 133 129 127 125 126 128 128 126 127 125 123 115 114 125 132 133 140 144 134 115 95 106 109 109 103 89 73 62 64 59 55 51 50 53 53 55 49 53 52 63 55 47 55 45 40 55 63 58 40 34 22 18 57 46 47 49 20 2 6
110 145 153 194 168 187 213 195 249 201 168 293 139 137 174 182 183 178 157 160 184 188 191 197 200 201 202 199 202 207 208 135 152 160 156 152 152 147 141 135 140 137 141 134 138 138 132 129 123 116 132 132 139 152 155 126 96 149 142 133 122 107 100 97 92 69 67 65 55 49 48 52 50 48 50 44 51 49 56 51 43 42 45 59 67 61 56 49 30 17 43 66 35 64 48 11 6
46 107 147 155 220 227 278 130 8 342 177 247 166 134 171 185 182 170 182 186 195 192 198 200 193 205 210 211 206 200 192 181 171 170 166 164 149 143 134 142 142 134 139 141 141 137 134 134 128 130 128 127 130 134 112 112 119 110 115 128 125 102 59 73 85 82 74 69 58 52 51 49 44 48 40 58 56 52 57 64 53 40 39 55 72 54 45 41 28 21 18 129 99 49 66 31 23
133 56 73 178 235 158 229 292 45 14 135 170 156 114 146 100 92 224 229 201 178 174 191 203 205 212 214 210 204 203 202 185 185 175 173 157 150 143 139 147 142 139 143 144 146 145 141 136 131 131 123 114 102 136 121 108 102 94 85 98 85 92 117 101 93 83 74 67 50 51 45 46 41 44 41 54 61 54 58 67 67 59 58 48 69 72 53 47 24 26 37 57 112 83 42 41 31
136 142 138 196 131 206 146 204 77 74 38 105 99 74 128 171 171 212 203 212 164 175 189 213 221 225 229 241 224 212 206 194 189 181 158 157 156 155 149 141 140 146 153 151 152 150 143 138 134 129 125 123 140 162 125 124 114 102 102 93 100 98 86 95 90 69 65 74 70 43 35 36 41 45 39 46 63 62 59 66 73 72 71 57 70 76 70 56 49 34 40 69 51 108 94 80 40
217 218 190 207 181 195 53 104 106 31 12 287 139 90 287 192 206 204 176 189 212 195 194 214 213 213 212 215 219 211 201 191 194 184 169 158 144 140 143 141 146 153 162 161 158 149 138 131 127 121 125 132 133 149 148 138 139 137 136 133 132 121 116 107 103 114 87 60 63 66 50 40 46 55 46 48 65 77 78 77 83 84 79 70 69 76 73 70 50 49 31 63 73 48 109 94 81
196 247 194 222 198 188 96 146 77 151 178 230 281 167 259 216 203 204 184 196 220 196 212 216 212 207 209 217 214 208 197 181 181 178 172 161 155 147 142 144 154 162 164 149 146 140 133 128 128 132 133 138 155 155 155 145 141 146 147 145 140 139 126 72 77 81 91 83 78 62 57 47 43 60 54 57 63 71 79 75 78 79 75 71 70 71 67 60 61 63 62 66 61 70 77 82 60
212 210 174 197 193 239 186 130 118 189 210 73 66 133 173 266 238 195 177 191 205 215 220 219 216 209 210 215 213 207 199 192 187 188 175 165 162 155 144 148 160 165 149 142 138 136 139 134 131 123 133 144 166 150 164 159 148 150 132 124 118 114 114 119 111 100 95 95 76 63 63 53 48 50 56 51 53 66 70 69 70 71 72 66 69 63 70 73 81 69 69 71 70 59 62 79 76
212 190 168 178 189 205 142 100 130 156 119 207 251 213 142 233 275 175 167 196 211 222 221 219 217 210 209 210 210 207 200 195 191 190 178 169 165 159 150 156 158 150 146 143 140 139 134 134 130 126 136 159 166 156 156 163 154 145 134 124 104 89 104 108 103 92 89 85 84 67 67 59 55 49 48 49 48 52 65 71 69 70 70 70 74 77 81 80 75 73 65 62 64 63 62 71 76
248 165 164 172 168 171 162 174 135 288 129 232 214 188 195 284 265 169 176 202 210 218 220 220 212 206 205 205 205 201 195 193 193 192 181 175 164 153 147 149 152 152 141 135 134 136 137 136 135 140 148 162 160 151 154 151 147 137 131 128 122 119 111 99 93 95 88 87 87 81 80 72 66 64 51 51 57 56 64 69 75 76 81 85 84 89 86 73 67 67 66 71 71 75 67 68 75
133 117 107 65 50 91 41 70 105 52 239 239 204 190 184 248 221 181 177 201 201 218 226 223 206 205 208 205 199 194 191 188 188 186 176 169 167 147 148 158 147 137 141 143 142 143 139 142 136 142 143 148 151 157 156 149 146 147 137 136 131 129 123 118 110 98 100 93 99 93 89 88 72 69 66 57 57 61 74 72 79 80 79 85 84 77 71 74 71 73 73 72 69 75 75 76 76
135 135 129 110 32 26 41 347 44 171 251 247 176 183 164 213 289 235 213 201 203 203 204 204 199 202 202 195 192 191 189 187 181 181 183 158 164 151 153 158 141 136 144 149 150 145 144 141 143 138 143 151 154 154 148 143 143 138 129 129 128 130 131 128 124 128 132 123 120 110 104 85 71 71 69 72 58 64 81 78 78 81 81 80 75 75 74 75 77 77 73 74 76 74 76 77 75
162 118 124 153 217 118 231 95 240 208 213 280 206 128 58 238 213 201 207 221 223 217 215 202 198 200 195 193 187 185 184 182 180 181 183 182 172 154 152 153 147 148 155 156 155 150 144 145 152 150 153 156 150 152 146 143 138 133 131 125 124 125 123 126 130 129 136 129 130 121 105 99 95 83 69 81 63 72 86 84 79 81 82 77 82 80 79 79 81 81 82 82 81 78 78 80 77
184 172 157 161 156 174 199 227 202 320 284 309 150 165 206 245 276 211 204 218 218 215 216 204 198 197 190 187 179 178 183 183 181 179 184 185 174 170 160 156 153 154 159 159 156 150 147 155 160 157 153 153 144 144 142 139 134 131 130 130 131 131 131 133 135 128 132 127 128 116 110 113 105 103 93 83 79 81 72 81 88 86 86 88 86 84 83 82 84 87 87 87 84 84 83 79 79
193 72 158 170 150 172 201 186 197 213 204 314 300 115 235 141 241 209 204 222 238 251 252 186 181 178 163 154 169 177 181 181 176 179 184 187 178 168 162 163 159 158 159 156 156 153 150 159 163 152 142 142 138 137 135 132 129 127 125 126 129 131 130 126 125 129 133 126 115 110 106 106 107 101 95 89 83 88 90 88 88 88 87 86 84 84 83 85 89 92 90 91 87 85 83 81 78
202 155 69 122 218 135 149 198 170 199 136 58 217 205 184 172 236 248 239 260 229 192 180 151 160 157 155 163 178 184 181 176 175 175 178 184 178 171 152 153 156 154 158 154 156 156 152 156 154 151 146 141 135 131 128 128 127 125 125 128 129 125 118 117 114 113 111 117 121 118 116 109 107 102 88 90 78 95 97 93 89 91 93 91 89 91 94 96 98 98 95 93 91 85 88 81 81
204 133 198 205 120 95 78 48 38 103 76 234 181 312 301 305 325 341 328 162 201 174 171 171 167 164 165 176 178 179 178 174 174 176 175 172 174 175 160 152 152 149 156 159 160 157 149 145 143 132 124 125 125 127 126 125 125 124 127 128 130 128 130 131 130 127 121 114 112 115 113 112 104 100 99 95 97 93 98 101 99 98 95 95 94 95 100 101 101 97 96 95 91 88 85 83 79
108 190 210 73 96 102 136 217 2 82 161 248 96 212 269 108 244 354 36 131 171 177 184 182 165 161 173 181 177 175 174 172 170 171 176 173 172 173 163 152 152 156 156 156 156 149 144 147 148 138 134 131 129 128 127 131 129 127 130 130 129 132 129 125 127 127 124 119 115 111 114 109 108 108 106 102 102 101 99 99 102 100 101 101 103 103 104 105 102 95 94 90 91 91 86 81 75
183 189 156 152 205 229 300 108 219 118 200 247 302 262 251 186 236 343 263 190 191 196 177 157 172 179 185 177 172 167 163 165 171 173 172 176 170 169 163 155 153 153 149 151 144 138 137 144 148 140 136 137 136 131 124 122 128 131 134 135 133 127 124 123 123 124 126 128 128 126 117 116 108 106 104 106 103 101 103 100 105 107 109 109 109 108 107 103 101 100 94 92 85 87 87 81 75
19 118 167 176 131 217 135 203 177 119 217 77 289 31 236 211 222 202 215 200 191 174 170 191 191 191 181 177 170 169 168 171 171 176 175 173 168 160 157 153 157 155 150 147 141 136 137 142 138 122 116 120 122 125 127 126 126 126 124 120 119 123 126 129 131 132 131 130 130 128 124 114 115 107 106 106 106 108 109 110 110 115 114 114 111 107 105 104 99 96 98 94 87 90 86 82 76
153 160 175 181 206 217 170 58 141 196 170 179 172 283 277 250 214 194 214 206 191 175 188 198 197 188 183 174 168 169 171 171 171 171 168 164 162 157 158 151 150 147 143 142 145 143 138 139 141 130 132 134 128 128 125 126 126 126 127 128 128 128 128 126 126 128 125 126 127 121 113 118 111 108 114 109 107 109 112 115 119 118 121 120 117 111 107 106 99 98 95 95 91 86 88 85 83
157 150 190 174 105 104 163 228 55 114 111 218 131 246 267 262 198 202 214 212 189 196 190 196 190 181 176 170 166 167 169 172 170 164 158 158 154 149 149 145 143 142 146 149 147 138 139 148 151 134 131 140 136 134 132 129 127 129 129 129 127 125 126 125 125 126 126 129 130 124 123 114 109 110 114 113 111 110 112 116 115 117 116 116 114 113 114 108 107 105 100 98 97 89 90 87 84